Notices

What's New in latest Release from April 7th, 2021:

- Updated Glossary, including Speed of Maximum Gust, and Total Hourly Precipitation

- Updated national and regional climate services offices contacts and prices information

- Addition of station inventory lists for 1981-2010, 1971-2000, and 1961-1990 Normals.

If you haven't already, please take our survey and provide feedback about our website: https://eccc.sondage-survey.ca/f/LanguageSelection.aspx?s=442ca660-fcf1-47c0-95a9-59707d6fd709

Hourly Data Report for August 07, 2015

IQALUIT CLIMATE
NUNAVUT

63°44'50.000" N
68°32'40.000" W
33.50 m
2402592
71321
XFB

Download Data

Hourly Data (August 2015)
Hourly Data Report for August 7, 2015
TIME
LST
Temp Definition
°C
Dew Point Definition
°C
Rel Hum Definition
%
Precip. Amount Definition
mm

Wind Dir Definition
10's deg

Wind Spd Definition
km/h
Visibility Definition
km
Stn Press Definition
kPa
Hmdx Definition


Wind Chill Definition


Weather Definition


00:00 8.1 6.1 87 0.0 33 20   100.83     LegendNANA
01:00 7.3 5.6 89 0.0 33 18   100.85     LegendNANA
02:00 6.5 5.1 91 0.0 32 17   100.91     LegendNANA
03:00 6.9 5.5 91 0.0 34 28   100.91     LegendNANA
04:00 6.6 4.4 86 0.0 32 29   100.96     LegendNANA
05:00 7.0 3.8 80 0.0 34 32   101.02     LegendNANA
06:00 8.1 4.1 76 0.0 33 28   101.07     LegendNANA
07:00 8.7 4.0 72 0.0 33 27   101.07     LegendNANA
08:00 7.8 4.3 78 0.0 32 25   101.11     LegendNANA
09:00 10.0 4.4 68 0.0 33 33   101.08     LegendNANA
10:00 11.6 5.0 64 0.0 32 31   101.05     LegendNANA
11:00 13.3 3.0 49 0.0 33 27   101.03     LegendNANA
12:00 14.6 2.5 44 0.0 33 21   101.03     LegendNANA
13:00 15.7 2.3 40 0.0 33 21   101.02     LegendNANA
14:00 17.1 0.6 33 0.0 32 18   100.99     LegendNANA
15:00 17.4 0.4 32 0.0 32 15   100.95     LegendNANA
16:00 LegendMM 2.6 50 0.0 20 6   100.95     LegendNANA
17:00 11.5 3.0 56 0.0 13 4   100.97     LegendNANA
18:00 10.0 2.5 60 0.0 13 4   100.96     LegendNANA
19:00 10.7 3.6 61 0.0 12 2   100.97     LegendNANA
20:00 10.8 3.6 61 0.0 13 4   100.94     LegendNANA
21:00 9.3 1.8 60 0.0 12 2   100.93     LegendNANA
22:00 9.6 3.1 64 0.0 31 2   100.93     LegendNANA
23:00 10.6 3.4 61 0.0 32 3   100.91     LegendNANA

Notes on Data Quality.

Legend

  • E = Estimated
  • M = Missing
  • NA = Not Available*
  • [empty] = Indicates an unobserved value
Date modified: